TimeEST,TemperatureF,Dew PointF,Humidity,Sea Level PressureIn,VisibilityMPH,Wind Direction,Wind SpeedMPH,Gust SpeedMPH,PrecipitationIn,Events,Conditions,WindDirDegrees,DateUTC
12:14 AM,55.4,43.2,63,30.04,10.0,South,11.5,23.0,N/A,,Overcast,170,2013-11-06 05:14:00
12:35 AM,53.8,45.3,73,30.04,7.0,South,15.0,25.3,N/A,Rain,Light Rain,180,2013-11-06 05:35:00
12:55 AM,52.7,46.4,79,30.03,10.0,South,15.0,18.4,N/A,Rain,Light Rain,180,2013-11-06 05:55:00
1:15 AM,53.6,45.9,75,30.02,10.0,South,11.5,19.6,N/A,,Overcast,180,2013-11-06 06:15:00
1:35 AM,53.1,45.9,77,30.02,10.0,South,10.4,-,N/A,Rain,Light Rain,170,2013-11-06 06:35:00
1:55 AM,52.9,45.7,77,30.00,10.0,South,10.4,18.4,N/A,Rain,Rain,170,2013-11-06 06:55:00
2:15 AM,53.4,45.1,74,29.99,10.0,SSE,11.5,18.4,N/A,,Overcast,160,2013-11-06 07:15:00
2:35 AM,53.8,44.8,72,29.97,10.0,South,9.2,-,N/A,,Overcast,170,2013-11-06 07:35:00
2:55 AM,53.4,46.0,76,29.98,7.0,South,9.2,16.1,N/A,Rain,Rain,180,2013-11-06 07:55:00
3:15 AM,51.8,48.2,88,29.96,7.0,South,8.1,-,N/A,Rain,Light Rain,180,2013-11-06 08:15:00
3:35 AM,52.0,49.1,90,29.94,10.0,SSE,5.8,-,N/A,Rain,Light Rain,160,2013-11-06 08:35:00
3:55 AM,52.3,49.1,89,29.92,10.0,SSE,5.8,-,N/A,,Overcast,160,2013-11-06 08:55:00
4:15 AM,54.3,48.9,82,29.91,10.0,South,11.5,17.3,N/A,,Overcast,180,2013-11-06 09:15:00
4:35 AM,56.3,48.4,75,29.90,10.0,South,12.7,19.6,N/A,,Drizzle,190,2013-11-06 09:35:00
4:55 AM,55.6,49.1,79,29.90,7.0,SSW,12.7,21.9,N/A,Rain,Rain,200,2013-11-06 09:55:00
5:15 AM,54.7,50.0,84,29.89,10.0,South,11.5,18.4,N/A,Rain,Light Rain,190,2013-11-06 10:15:00
5:35 AM,54.5,50.4,86,29.89,10.0,South,10.4,19.6,N/A,Rain,Rain,190,2013-11-06 10:35:00
5:55 AM,54.0,51.6,92,29.88,5.0,South,13.8,25.3,N/A,Rain,Rain,190,2013-11-06 10:55:00
6:15 AM,54.0,52.2,94,29.87,7.0,South,12.7,19.6,N/A,Rain,Rain,190,2013-11-06 11:15:00
6:35 AM,54.7,52.9,94,29.86,7.0,SSW,12.7,20.7,N/A,Rain,Heavy Rain,200,2013-11-06 11:35:00
6:55 AM,54.7,53.2,95,29.86,5.0,SSW,13.8,20.7,N/A,Rain,Heavy Rain,200,2013-11-06 11:55:00
7:15 AM,54.9,53.2,94,29.86,5.0,SSW,13.8,21.9,N/A,Rain,Heavy Rain,200,2013-11-06 12:15:00
7:35 AM,54.9,53.6,96,29.85,5.0,SSW,13.8,25.3,N/A,Rain,Rain,210,2013-11-06 12:35:00
7:55 AM,55.0,53.8,96,29.85,7.0,SSW,13.8,23.0,N/A,Rain,Rain,200,2013-11-06 12:55:00
8:15 AM,55.4,54.0,95,29.85,7.0,SSW,15.0,25.3,N/A,Rain,Rain,200,2013-11-06 13:15:00
8:35 AM,55.4,54.0,95,29.85,10.0,SSW,20.7,27.6,N/A,Rain,Light Rain,210,2013-11-06 13:35:00
8:55 AM,55.4,54.0,95,29.85,7.0,SSW,13.8,25.3,N/A,Rain,Light Rain,210,2013-11-06 13:55:00
9:15 AM,55.4,54.0,95,29.85,7.0,SSW,13.8,27.6,N/A,Rain,Rain,210,2013-11-06 14:15:00
9:35 AM,55.4,54.0,95,29.85,5.0,SSW,16.1,25.3,N/A,Rain,Rain,200,2013-11-06 14:35:00
9:55 AM,55.4,53.8,94,29.85,4.0,SSW,13.8,24.2,N/A,Rain,Rain,210,2013-11-06 14:55:00
10:15 AM,55.2,53.6,94,29.84,4.0,SSW,12.7,26.5,N/A,Rain,Rain,200,2013-11-06 15:15:00
10:35 AM,55.4,53.6,94,29.83,5.0,SSW,15.0,23.0,N/A,Rain,Light Rain,200,2013-11-06 15:35:00
10:55 AM,55.2,53.8,95,29.83,4.0,SSW,15.0,21.9,N/A,Rain,Light Rain,210,2013-11-06 15:55:00
11:14 AM,55.4,53.8,94,29.82,2.5,SW,12.7,23.0,N/A,Rain,Heavy Rain,220,2013-11-06 16:14:00
11:35 AM,55.0,53.8,96,29.82,3.0,SSW,13.8,19.6,N/A,Rain,Rain,210,2013-11-06 16:35:00
11:55 AM,55.4,54.0,95,29.81,4.0,SSW,13.8,19.6,N/A,Rain,Light Rain,200,2013-11-06 16:55:00
12:14 PM,55.4,54.0,95,29.80,7.0,South,13.8,18.4,N/A,Rain,Light Rain,190,2013-11-06 17:14:00
12:35 PM,55.6,54.1,95,29.79,10.0,SSW,11.5,18.4,N/A,Rain,Light Rain,200,2013-11-06 17:35:00
12:54 PM,56.3,54.3,93,29.79,10.0,SSW,13.8,19.6,N/A,,Overcast,210,2013-11-06 17:54:00
1:15 PM,55.9,54.0,93,29.77,10.0,SSW,11.5,18.4,N/A,,Overcast,210,2013-11-06 18:15:00
1:35 PM,56.1,54.0,92,29.78,10.0,SW,12.7,24.2,N/A,,Overcast,220,2013-11-06 18:35:00
1:54 PM,56.3,53.8,91,29.79,10.0,SW,12.7,25.3,N/A,,Overcast,220,2013-11-06 18:54:00
2:15 PM,55.6,53.8,94,29.79,3.0,SW,17.3,25.3,N/A,Rain,Rain,230,2013-11-06 19:15:00
2:35 PM,54.0,51.6,92,29.82,10.0,WNW,13.8,27.6,N/A,Rain,Light Rain,290,2013-11-06 19:35:00
2:55 PM,48.2,46.6,94,29.84,7.0,NW,10.4,18.4,N/A,Rain,Rain,310,2013-11-06 19:55:00
3:15 PM,46.8,45.1,94,29.86,7.0,WNW,13.8,20.7,N/A,Rain,Light Rain,290,2013-11-06 20:15:00
3:35 PM,45.7,43.9,93,29.87,7.0,WNW,13.8,20.7,N/A,Rain,Rain,300,2013-11-06 20:35:00
3:55 PM,44.6,42.8,93,29.89,2.5,WNW,12.7,23.0,N/A,Rain,Light Rain,290,2013-11-06 20:55:00
4:15 PM,44.6,41.9,90,29.91,10.0,WNW,13.8,19.6,N/A,,Overcast,300,2013-11-06 21:15:00
4:35 PM,44.1,41.7,91,29.92,3.0,NW,11.5,20.7,N/A,Rain,Light Rain,310,2013-11-06 21:35:00
4:55 PM,43.7,41.9,93,29.94,3.0,WNW,10.4,20.7,N/A,Rain,Light Rain,300,2013-11-06 21:55:00
5:15 PM,43.7,41.7,93,29.94,4.0,WNW,11.5,18.4,N/A,,Overcast,300,2013-11-06 22:15:00
5:35 PM,43.7,41.0,90,29.95,7.0,WNW,10.4,20.7,N/A,Rain,Light Rain,300,2013-11-06 22:35:00
5:55 PM,43.7,41.0,90,29.96,7.0,NW,15.0,19.6,N/A,Rain,Light Rain,320,2013-11-06 22:55:00
6:15 PM,43.2,41.2,93,29.96,4.0,NW,13.8,20.7,N/A,Rain,Light Rain,320,2013-11-06 23:15:00
6:35 PM,43.2,40.1,89,29.99,10.0,NW,10.4,18.4,N/A,,Overcast,310,2013-11-06 23:35:00
6:55 PM,43.7,39.4,85,30.00,10.0,NW,16.1,23.0,N/A,,Overcast,320,2013-11-06 23:55:00
7:15 PM,43.9,38.3,81,30.00,10.0,NW,12.7,21.9,N/A,,Overcast,310,2013-11-07 00:15:00
7:35 PM,44.6,36.5,73,30.01,10.0,NNW,15.0,23.0,N/A,,Overcast,330,2013-11-07 00:35:00
7:55 PM,44.6,37.4,76,30.02,10.0,NW,15.0,23.0,N/A,,Overcast,310,2013-11-07 00:55:00
8:15 PM,44.8,37.0,74,30.03,10.0,NW,10.4,20.7,N/A,,Overcast,310,2013-11-07 01:15:00
8:35 PM,44.8,36.5,73,30.03,10.0,NW,13.8,21.9,N/A,,Overcast,310,2013-11-07 01:35:00
8:55 PM,45.0,34.9,68,30.03,10.0,NW,11.5,23.0,N/A,,Overcast,320,2013-11-07 01:55:00
9:14 PM,44.4,37.6,77,30.05,10.0,NW,13.8,27.6,N/A,,Drizzle,320,2013-11-07 02:14:00
9:35 PM,43.2,36.1,76,30.05,10.0,NNW,13.8,19.6,N/A,,Overcast,330,2013-11-07 02:35:00
9:55 PM,44.2,34.9,70,30.04,10.0,NW,16.1,19.6,N/A,,Overcast,310,2013-11-07 02:55:00
10:14 PM,44.6,35.2,70,30.05,10.0,NW,13.8,25.3,N/A,,Overcast,320,2013-11-07 03:14:00
10:35 PM,44.6,35.1,69,30.05,10.0,NW,11.5,23.0,N/A,,Overcast,320,2013-11-07 03:35:00
10:55 PM,44.4,34.0,67,30.05,10.0,NW,10.4,24.2,N/A,,Overcast,320,2013-11-07 03:55:00
11:14 PM,44.1,32.7,64,30.05,10.0,NNW,16.1,21.9,N/A,,Overcast,330,2013-11-07 04:14:00
11:35 PM,43.7,33.8,68,30.05,10.0,NW,12.7,23.0,N/A,,Overcast,320,2013-11-07 04:35:00
11:55 PM,43.7,33.4,67,30.06,10.0,NW,11.5,20.7,N/A,,Overcast,320,2013-11-07 04:55:00